Vertical_Velocity
1 -3 -2 -6 -2 -3 -2 -1 -0 -2 -1 0 1 0 -0 -0 -0 1 -1 -2 -2 1
-1 1 -0 -2 -3 -1 -3 -2 -1 1 -2 0 1 1 0 1 -0 1 -3 0 -1 -2
-1 0 -0 -0 -2 -3 -1 -4 -2 3 0 0 0 2 1 -0 3 1 -1 -1 -0 -2
2 -0 -1 -1 -2 3 -3 1 -7 -1 3 -1 1 1 1 1 0 1 2 -0 1 -0
-1 0 0 -2 1 -1 2 -3 2 -5 1 2 0 2 2 1 2 2 1 0 1 0
0 -2 0 3 -1 2 -0 2 -2 -3 -4 3 -1 1 4 4 -2 2 -1 4 0 1
-1 1 0 0 0 -2 -1 2 1 0 -2 2 -1 -1 4 3 -1 5 0 2 0 0
2 -1 -2 -2 -0 1 -3 -1 4 -0 -1 0 1 -1 5 3 4 1 -0 3 1 1
-1 1 -1 -0 0 1 2 -0 1 3 -1 -2 2 1 0 3 1 3 -1 4 -0 0
-1 1 2 1 -2 1 3 2 -1 2 2 -2 -0 2 -1 4 1 1 3 2 2 -0
-0 1 1 1 2 1 1 2 4 2 4 -1 0 2 2 4 2 -4 0 5 3 -1
2 1 1 1 1 2 1 1 2 4 2 0 0 0 5 5 4 -2 1 4 0 3
-1 1 0 -2 -1 1 2 4 2 1 2 4 2 0 2 4 1 -4 -3 7 3 5
1 1 -1 -0 -1 1 -0 -2 2 4 1 0 1 2 4 1 1 3 -0 4 3 1
Height
3141 3143 3144 3145 3146 3147 3148 3150 3152 3153 3154 3156 3157 3157 3158 3158 3157 3157 3157 3155 3153 3151
3136 3139 3140 3141 3142 3143 3144 3146 3148 3149 3150 3151 3152 3153 3153 3153 3154 3154 3152 3151 3149 3147
3131 3134 3136 3138 3138 3139 3140 3141 3142 3145 3145 3146 3147 3148 3148 3148 3149 3149 3148 3148 3145 3143
3127 3129 3131 3133 3134 3136 3136 3137 3138 3140 3141 3141 3142 3142 3142 3143 3143 3143 3143 3142 3141 3138
3122 3124 3126 3128 3130 3131 3132 3133 3134 3134 3136 3136 3136 3136 3137 3137 3137 3138 3137 3137 3136 3134
3117 3119 3121 3123 3124 3126 3127 3128 3129 3129 3129 3131 3130 3130 3130 3131 3130 3131 3131 3132 3131 3129
3113 3114 3116 3118 3119 3120 3121 3122 3123 3124 3124 3124 3125 3124 3124 3124 3123 3125 3125 3125 3125 3124
3108 3110 3111 3113 3114 3115 3116 3117 3118 3118 3118 3118 3119 3118 3118 3118 3118 3118 3118 3119 3118 3118
3102 3104 3105 3107 3108 3109 3110 3110 3111 3111 3112 3111 3112 3111 3111 3111 3110 3111 3111 3111 3111 3111
3095 3097 3099 3100 3101 3103 3103 3103 3104 3104 3104 3104 3105 3105 3104 3103 3103 3103 3103 3103 3103 3103
3087 3089 3091 3093 3093 3094 3095 3095 3095 3096 3096 3096 3096 3097 3096 3095 3095 3094 3094 3094 3095 3095
3080 3081 3083 3084 3085 3086 3086 3087 3088 3088 3088 3088 3087 3088 3088 3088 3086 3086 3086 3086 3086 3086
3073 3075 3075 3076 3078 3079 3079 3079 3080 3080 3079 3079 3078 3079 3080 3080 3078 3077 3077 3078 3078 3078
3066 3067 3068 3068 3069 3071 3071 3070 3071 3071 3071 3070 3069 3070 3072 3071 3070 3069 3068 3068 3069 3070